Hourly Weather Suhodolnyy

Today, 17 January, Sunday

Time Temperature Precipitation Wind Pressure Humidity
00:00 -20°C° 0 mm 4 mps 745 mmHg 94%
01:00 -20°C° 0 mm 4 mps 745 mmHg 95%
02:00 -21°C° 0 mm 3 mps 746 mmHg 95%
03:00 -22°C° 0 mm 4 mps 746 mmHg 95%
04:00 -22°C° 0 mm 3 mps 745 mmHg 95%
05:00 -20°C° 0 mm 2 mps 745 mmHg 96%
06:00 -20°C° 0 mm 2 mps 745 mmHg 96%
07:00 -20°C° 0 mm 2 mps 745 mmHg 95%
08:00 -18°C° 0 mm 1 mps 745 mmHg 94%
09:00 -18°C° 0 mm 1 mps 746 mmHg 93%
10:00 -17°C° 0 mm 1 mps 745 mmHg 92%
11:00 -15°C° 0 mm 1 mps 745 mmHg 90%
12:00 -14°C° 0 mm 1 mps 745 mmHg 89%
13:00 -14°C° 0 mm 1 mps 745 mmHg 90%
14:00 -16°C° 0 mm 2 mps 745 mmHg 90%
15:00 -16°C° 0 mm 2 mps 745 mmHg 91%
16:00 -16°C° 0 mm 2 mps 745 mmHg 92%
17:00 -17°C° 0 mm 2 mps 745 mmHg 93%
18:00 -17°C° 0 mm 2 mps 745 mmHg 93%
19:00 -17°C° 0 mm 2 mps 745 mmHg 93%
20:00 -17°C° 0 mm 2 mps 745 mmHg 92%
21:00 -17°C° 0 mm 2 mps 745 mmHg 91%
22:00 -19°C° 0 mm 3 mps 745 mmHg 91%
23:00 -19°C° 0 mm 3 mps 745 mmHg 92%

Tomorrow, 18 January, Monday

Time Temperature Precipitation Wind Pressure Humidity
00:00 -19°C° 0 mm 3 mps 745 mmHg 92%
01:00 -19°C° 0 mm 3 mps 745 mmHg 91%
02:00 -19°C° 0 mm 3 mps 745 mmHg 91%
03:00 -19°C° 0 mm 3 mps 745 mmHg 91%
04:00 -19°C° 0.2 mm 3 mps 745 mmHg 92%
05:00 -19°C° 0.2 mm 3 mps 745 mmHg 93%
06:00 -19°C° 0.2 mm 4 mps 745 mmHg 95%
07:00 -18°C° 0.5 mm 3 mps 745 mmHg 95%
08:00 -18°C° 0.5 mm 3 mps 745 mmHg 95%
09:00 -18°C° 0.5 mm 3 mps 746 mmHg 95%
10:00 -18°C° 0.5 mm 3 mps 746 mmHg 95%
11:00 -17°C° 0.5 mm 3 mps 746 mmHg 95%
12:00 -17°C° 0.5 mm 3 mps 746 mmHg 95%
13:00 -16°C° 0.4 mm 3 mps 746 mmHg 94%
14:00 -16°C° 0.4 mm 3 mps 746 mmHg 94%
15:00 -16°C° 0.4 mm 3 mps 746 mmHg 94%
16:00 -15°C° 0.1 mm 2 mps 746 mmHg 95%
17:00 -16°C° 0.1 mm 2 mps 746 mmHg 95%
18:00 -15°C° 0.1 mm 1 mps 746 mmHg 96%
19:00 -15°C° 0.1 mm 1 mps 746 mmHg 96%
20:00 -17°C° 0.1 mm 2 mps 747 mmHg 96%
21:00 -18°C° 0.1 mm 2 mps 747 mmHg 96%
22:00 -18°C° 0 mm 2 mps 747 mmHg 96%
23:00 -17°C° 0 mm 1 mps 747 mmHg 96%

Day after tomorrow, 19 January, Tuesday

Time Temperature Precipitation Wind Pressure Humidity
00:00 -17°C° 0 mm 1 mps 747 mmHg 96%
01:00 -18°C° 0 mm 1 mps 747 mmHg 97%
02:00 -19°C° 0 mm 1 mps 747 mmHg 98%
03:00 -20°C° 0 mm 1 mps 747 mmHg 99%
04:00 -19°C° 0 mm 1 mps 747 mmHg 99%
05:00 -19°C° 0 mm 1 mps 747 mmHg 98%
06:00 -18°C° 0 mm 1 mps 747 mmHg 97%
07:00 -18°C° 0 mm 1 mps 748 mmHg 97%
08:00 -18°C° 0 mm 1 mps 748 mmHg 97%
09:00 -18°C° 0 mm 1 mps 748 mmHg 97%
10:00 -17°C° 0 mm 1 mps 748 mmHg 95%
11:00 -17°C° 0 mm 1 mps 748 mmHg 93%
12:00 -16°C° 0 mm 1 mps 748 mmHg 92%
13:00 -16°C° 0 mm 1 mps 747 mmHg 92%
14:00 -16°C° 0 mm 1 mps 747 mmHg 93%
15:00 -16°C° 0 mm 1 mps 747 mmHg 94%
16:00 -17°C° 0 mm 1 mps 747 mmHg 95%
17:00 -19°C° 0 mm 1 mps 747 mmHg 97%
18:00 -23°C° 0 mm 2 mps 747 mmHg 98%
19:00 -23°C° 0 mm 2 mps 748 mmHg 98%
20:00 -24°C° 0 mm 2 mps 748 mmHg 98%
21:00 -24°C° 0 mm 2 mps 748 mmHg 98%
22:00 -24°C° 0 mm 2 mps 748 mmHg 98%
23:00 -24°C° 0 mm 2 mps 748 mmHg 98%

20 January, Wednesday

Time Temperature Precipitation Wind Pressure Humidity
00:00 -24°C° 0 mm 2 mps 748 mmHg 98%
01:00 -24°C° 0 mm 2 mps 749 mmHg 98%
02:00 -24°C° 0 mm 2 mps 749 mmHg 98%
03:00 -25°C° 0 mm 3 mps 749 mmHg 98%
04:00 -25°C° 0 mm 3 mps 749 mmHg 97%
05:00 -24°C° 0 mm 3 mps 750 mmHg 97%
06:00 -24°C° 0 mm 3 mps 750 mmHg 96%
07:00 -23°C° 0 mm 3 mps 750 mmHg 96%
08:00 -23°C° 0 mm 3 mps 751 mmHg 95%
09:00 -23°C° 0 mm 3 mps 751 mmHg 95%
10:00 -22°C° 0 mm 3 mps 751 mmHg 94%
11:00 -21°C° 0 mm 3 mps 752 mmHg 93%
12:00 -19°C° 0 mm 3 mps 752 mmHg 92%
13:00 -19°C° 0 mm 3 mps 752 mmHg 92%
14:00 -19°C° 0 mm 3 mps 752 mmHg 93%
15:00 -19°C° 0 mm 3 mps 752 mmHg 93%
16:00 -21°C° 0 mm 3 mps 752 mmHg 94%
17:00 -22°C° 0 mm 3 mps 753 mmHg 95%
18:00 -24°C° 0 mm 3 mps 753 mmHg 96%
19:00 -24°C° 0 mm 3 mps 754 mmHg 97%
20:00 -23°C° 0 mm 2 mps 754 mmHg 97%
21:00 -23°C° 0 mm 2 mps 754 mmHg 97%
22:00 -24°C° 0 mm 2 mps 755 mmHg 97%
23:00 -24°C° 0 mm 2 mps 755 mmHg 98%

21 January, Thursday

Time Temperature Precipitation Wind Pressure Humidity
00:00 -24°C° 0 mm 2 mps 755 mmHg 98%
01:00 -24°C° 0 mm 2 mps 755 mmHg 98%
02:00 -24°C° 0 mm 2 mps 755 mmHg 97%
03:00 -24°C° 0 mm 2 mps 756 mmHg 97%
04:00 -24°C° 0 mm 2 mps 756 mmHg 97%
05:00 -24°C° 0 mm 2 mps 756 mmHg 97%
06:00 -24°C° 0 mm 2 mps 756 mmHg 97%
07:00 -23°C° 0 mm 2 mps 756 mmHg 96%
08:00 -23°C° 0 mm 2 mps 756 mmHg 95%
09:00 -21°C° 0 mm 2 mps 757 mmHg 94%
10:00 -20°C° 0 mm 2 mps 756 mmHg 93%
11:00 -19°C° 0 mm 3 mps 756 mmHg 91%
12:00 -18°C° 0 mm 3 mps 756 mmHg 89%
13:00 -17°C° 0 mm 3 mps 756 mmHg 89%
14:00 -17°C° 0 mm 3 mps 756 mmHg 89%
15:00 -16°C° 0 mm 3 mps 755 mmHg 88%
16:00 -17°C° 0 mm 3 mps 755 mmHg 89%
17:00 -18°C° 0 mm 4 mps 755 mmHg 90%
18:00 -19°C° 0 mm 4 mps 755 mmHg 91%
19:00 -18°C° 0 mm 4 mps 755 mmHg 91%
20:00 -17°C° 0 mm 4 mps 754 mmHg 90%
21:00 -17°C° 0 mm 5 mps 754 mmHg 90%
22:00 -15°C° 0 mm 5 mps 754 mmHg 91%
23:00 -14°C° 0 mm 5 mps 753 mmHg 93%

22 January, Friday

Time Temperature Precipitation Wind Pressure Humidity
00:00 -13°C° 0 mm 5 mps 753 mmHg 94%
01:00 -12°C° 0.1 mm 5 mps 753 mmHg 94%
02:00 -11°C° 0.1 mm 5 mps 753 mmHg 94%
03:00 -8°C° 0.1 mm 5 mps 752 mmHg 94%
04:00 -7°C° 0 mm 5 mps 752 mmHg 94%
05:00 -7°C° 0 mm 5 mps 752 mmHg 95%
06:00 -6°C° 0 mm 5 mps 752 mmHg 95%
07:00 -4°C° 0 mm 4 mps 752 mmHg 95%
08:00 -3°C° 0 mm 4 mps 752 mmHg 95%
09:00 -3°C° 0 mm 4 mps 752 mmHg 95%
10:00 -2°C° 0 mm 4 mps 752 mmHg 97%
11:00 -2°C° 0 mm 4 mps 752 mmHg 98%
12:00 -1°C° 0 mm 4 mps 752 mmHg 100%
13:00 -1°C° 0 mm 5 mps 751 mmHg 99%
14:00 -1°C° 0 mm 5 mps 751 mmHg 99%
15:00 -1°C° 0 mm 5 mps 751 mmHg 99%
16:00 -1°C° 0 mm 5 mps 751 mmHg 99%
17:00 -1°C° 0 mm 5 mps 751 mmHg 98%
18:00 -1°C° 0 mm 4 mps 751 mmHg 97%
19:00 -1°C° 0 mm 5 mps 751 mmHg 97%
20:00 -1°C° 0 mm 5 mps 751 mmHg 97%
21:00 -1°C° 0 mm 5 mps 751 mmHg 97%
22:00 -1°C° 0 mm 5 mps 751 mmHg 97%
23:00 -2°C° 0 mm 6 mps 751 mmHg 97%
Show more